Estación de San Nicolás
Ultimos registro cada 15 minutos 41
| N° | Estación | Fecha / Hora | Temperatura | Humedad | Lluvia | Velocidad | Dirección | Radiación | Presion |
| 41 | San Nicolás | 05-05-2026 10:00 | 14,4 | 97 | 0 | 0 | 69 | 116 | 1011,5 |
| 40 | San Nicolás | 05-05-2026 09:45 | 14,2 | 97 | 0 | 0,9 | 69 | 118 | 1011,4 |
| 39 | San Nicolás | 05-05-2026 09:30 | 14 | 97 | 0 | 0,4 | 69 | 114 | 1011,1 |
| 38 | San Nicolás | 05-05-2026 09:15 | 13,7 | 97 | 0 | 0,9 | 69 | 111 | 1011,1 |
| 37 | San Nicolás | 05-05-2026 09:00 | 13,3 | 97 | 0 | 0,9 | 68 | 105 | 1011,8 |
| 36 | San Nicolás | 05-05-2026 08:45 | 12,6 | 97 | 0 | 0 | 79 | 111 | 1011,2 |
| 35 | San Nicolás | 05-05-2026 08:30 | 12,1 | 97 | 0 | 0 | 79 | 44 | 1011,7 |
| 34 | San Nicolás | 05-05-2026 08:15 | 11,7 | 97 | 0 | 0 | 79 | 33 | 1011,8 |
| 33 | San Nicolás | 05-05-2026 08:00 | 11,5 | 97 | 0 | 0 | 79 | 21 | 1011,9 |
| 32 | San Nicolás | 05-05-2026 07:45 | 11,3 | 96 | 0 | 0 | 79 | 5 | 1011,8 |
| 31 | San Nicolás | 05-05-2026 07:30 | 11,3 | 96 | 0 | 0 | 79 | 0 | 1012 |
| 30 | San Nicolás | 05-05-2026 07:15 | 11,5 | 96 | 0 | 0 | 79 | 0 | 1012,1 |
| 29 | San Nicolás | 05-05-2026 07:00 | 11,6 | 96 | 0 | 0 | 79 | 0 | 1012,6 |
| 28 | San Nicolás | 05-05-2026 06:45 | 11,9 | 96 | 0 | 0 | 79 | 0 | 1012,6 |
| 27 | San Nicolás | 05-05-2026 06:30 | 12,2 | 96 | 0 | 0 | 79 | 0 | 1012,8 |
| 26 | San Nicolás | 05-05-2026 06:15 | 12,3 | 97 | 0 | 0 | 79 | 0 | 1012,8 |
| 25 | San Nicolás | 05-05-2026 06:00 | 12,3 | 96 | 0 | 0 | 79 | 0 | 1012,5 |
| 24 | San Nicolás | 05-05-2026 05:45 | 12,3 | 97 | 0 | 0,9 | 79 | 0 | 1012,6 |
| 23 | San Nicolás | 05-05-2026 05:30 | 12,2 | 96 | 0 | 0,9 | 79 | 0 | 1012,8 |
| 22 | San Nicolás | 05-05-2026 05:15 | 12,2 | 97 | 0 | 0 | 78 | 0 | 1013,1 |
| 21 | San Nicolás | 05-05-2026 05:00 | 11,9 | 96 | 0 | 1,8 | 78 | 0 | 1012,3 |
| 20 | San Nicolás | 05-05-2026 04:45 | 12 | 96 | 0 | 0 | 76 | 0 | 1012,9 |
| 19 | San Nicolás | 05-05-2026 04:30 | 11,8 | 96 | 0 | 0 | 76 | 0 | 1012,8 |
| 18 | San Nicolás | 05-05-2026 04:15 | 11,7 | 96 | 0 | 0 | 76 | 0 | 1013,1 |
| 17 | San Nicolás | 05-05-2026 04:00 | 11,8 | 96 | 0 | 0 | 76 | 0 | 1012,4 |
| 16 | San Nicolás | 05-05-2026 03:45 | 11,8 | 96 | 0 | 0 | 76 | 0 | 1012,1 |
| 15 | San Nicolás | 05-05-2026 03:30 | 11,9 | 96 | 0 | 0 | 76 | 0 | 1012,3 |
| 14 | San Nicolás | 05-05-2026 03:15 | 12,1 | 96 | 0 | 0 | 76 | 0 | 1012,9 |
| 13 | San Nicolás | 05-05-2026 03:00 | 12,1 | 96 | 0 | 0 | 76 | 0 | 1012,8 |
| 12 | San Nicolás | 05-05-2026 02:45 | 12,2 | 96 | 0 | 0 | 76 | 0 | 1012,9 |
| 11 | San Nicolás | 05-05-2026 02:30 | 12,1 | 96 | 0 | 0 | 76 | 0 | 1012,7 |
| 10 | San Nicolás | 05-05-2026 02:15 | 12,1 | 96 | 0 | 0 | 76 | 0 | 1013,1 |
| 9 | San Nicolás | 05-05-2026 02:00 | 12,3 | 96 | 0 | 0 | 76 | 0 | 1012,9 |
| 8 | San Nicolás | 05-05-2026 01:45 | 12,4 | 96 | 0 | 0 | 76 | 0 | 1013,2 |
| 7 | San Nicolás | 05-05-2026 01:30 | 12,2 | 96 | 0 | 0 | 76 | 0 | 1013,2 |
| 6 | San Nicolás | 05-05-2026 01:15 | 12,2 | 96 | 0 | 0 | 76 | 0 | 1013,1 |
| 5 | San Nicolás | 05-05-2026 01:00 | 12,1 | 96 | 0 | 0 | 76 | 0 | 1012,9 |
| 4 | San Nicolás | 05-05-2026 00:45 | 12,1 | 96 | 0 | 0 | 76 | 0 | 1013,1 |
| 3 | San Nicolás | 05-05-2026 00:30 | 11,9 | 95 | 0 | 0 | 76 | 0 | 1013,5 |
| 2 | San Nicolás | 05-05-2026 00:15 | 11,9 | 95 | 0 | 0 | 76 | 0 | 1013,5 |
| 1 | San Nicolás | 05-05-2026 00:00 | 12,1 | 95 | 0 | 0 | 76 | 0 | 1013,6 |